Regional Weather Roundup
Issued by NWS

Home | Current Version | Previous Version | Graphics & Text | Print | Product List | Glossary On
Versions: 1 2 3 4 5 6 7 8 9 10 11 12 13 14 15 16 17 18 19 20 21 22 23 24 25 26 27 28 29 30 31 32 33 34 35 36 37 38 39 40 41 42 43 44 45 46 47 48 49 50
000
ASUS43 KMPX 071901
RWRMN
WEATHER ROUNDUP FOR MINNESOTA
NATIONAL WEATHER SERVICE TWIN CITIES/CHANHASSEN MN
200 PM CDT TUE JUL 07 2015


NOTE: "FAIR" INDICATES FEW OR NO CLOUDS BELOW 12,000 FEET WITH NO
SIGNIFICANT WEATHER AND/OR OBSTRUCTIONS TO VISIBILITY. N/A MEANS
CURRENT SKY AND/OR WEATHER CONDITIONS ARE NOT AVAILABLE.

MNZ060>063-068>070-072000-
   Twin Cities Metro

CITY           SKY/WX    TMP DP  RH WIND       PRES   REMARKS
TWIN CITIES    MOSUNNY   67  46  47 NE12      30.15F
ST PAUL        PTSUNNY   67  47  48 N10       30.15F
CRYSTAL        PTSUNNY   70  46  42 N8        30.14F
LAKEVILLE      PTSUNNY   64  48  55 NE7       30.16S
EDEN PRAIRIE   PTSUNNY   69  47  45 N8        30.14F
SOUTH ST PAUL  PTSUNNY   68  46  46 NE5       30.15S
LAKE ELMO      CLOUDY    64  46  52 N5        30.16S
$$
MNZ001>005-007-008-013>017-022>024-027-028-072000-
   Northwest Minnesota

CITY           SKY/WX    TMP DP  RH WIND       PRES   REMARKS
BEMIDJI        MOSUNNY   65  44  46 NW3       30.15F
HALLOCK        SUNNY     70  48  46 S12       30.11F
ROSEAU         SUNNY     68  52  56 SW7       30.12F
WARROAD        SUNNY     66  48  52 W8        30.12F
THIEF RVR FALL SUNNY     66  45  45 S9        30.15S
CROOKSTON      SUNNY     68  45  42 SW10      30.15F
FOSSTON        SUNNY     68  46  45 CALM      30.16F
DETROIT LAKES  SUNNY     66  36  32 W3        30.17F
MOORHEAD       SUNNY     68  43  40 SW5       30.16F
PARK RAPIDS    SUNNY     69  43  38 VRB5      30.15F
MAHNOMEN       FAIR      68  45  44 W3        30.15F
$$
MNZ006-009>011-018-025>026-072000-
   North Central Minnesota

CITY           SKY/WX    TMP DP  RH WIND       PRES   REMARKS
BAUDETTE       SUNNY     70  47  43 CALM      30.12F
FLAG ISLAND    SUNNY     68  54  60 S14G20    30.08F
INTL FALLS     SUNNY     70  43  37 W3        30.11F
WASKISH        SUNNY     68  48  49 SW9       30.14S
BIG FORK       SUNNY     70  41  35 W5        30.13F
LONGVILLE      SUNNY     66  43  42 N5        30.15F
GRAND RAPIDS   MOSUNNY   68  39  34 W5        30.15F
CRANE LAKE     SUNNY     66  36  32 NW5       30.13F
COOK           SUNNY     66  43  42 W8        30.13F
WALKER         FAIR      66  43  43 W6        30.15F
$$
MNZ012-019>021-037-072000-
   Northeast Minnesota

CITY           SKY/WX    TMP DP  RH WIND       PRES   REMARKS
DULUTH         MOSUNNY   68  43  40 N12       30.12F
ELY            SUNNY     66  39  37 NE7       30.11F
HIBBING        SUNNY     68  41  37 SW6       30.13F
DULUTH HARBOR    N/A     70  45  40 CALM      30.13F
TWO HARBORS    MOSUNNY   70  54  56 SW8       30.10S
SILVER BAY     SUNNY     66  48  52 S7        30.09F
GRAND MARAIS     N/A     57  48  72 W8        30.09S
G MARAIS ARPRT SUNNY     64  39  39 N7        30.10F
$$
MNZ029>031-032-039>041-046>048-054>057-064-072000-
   West Central Minnesota

CITY           SKY/WX    TMP DP  RH WIND       PRES   REMARKS
FERGUS FALLS   SUNNY     66  45  45 SW5       30.16F
WHEATON        MOSUNNY   66  46  48 S8        30.19F
MORRIS         PTSUNNY   68  48  49 CALM      30.17F
ALEXANDRIA     SUNNY     66  43  43 VRB5      30.19F
ELBOW LAKE     FAIR      67  46  46 SE3       30.17F
WADENA         SUNNY     68  41  37 CALM      30.16F
GLENWOOD       SUNNY     68  43  40 N3        30.18F
APPLETON       MOSUNNY   70  45  40 CALM      30.17F
BENSON         MOSUNNY   68  43  40 NE7       30.18F
ORTONVILLE     SUNNY     68  43  40 CALM      30.18F
MADISON        MOSUNNY   66  46  48 CALM      30.18F
WILLMAR        FAIR      68  46  45 CALM      30.19F
$$
MNZ033>034-036-042>043-049>051-058-059-072000-
   Central Minnesota

CITY           SKY/WX    TMP DP  RH WIND       PRES   REMARKS
ST CLOUD       SUNNY     69  43  38 E6        30.16F
SAUK CENTRE    MOCLDY    65  44  46 CALM      30.18S
PAYNESVILLE    PTSUNNY   65  44  44 NW8       30.18F
AITKIN         MOSUNNY   68  45  42 N3        30.14F
PINE RIVER     SUNNY     66  45  45 NW6       30.18F
BRAINERD       MOSUNNY   70  43  37 VRB5      30.16F
STAPLES        SUNNY     68  37  32 NE3       30.16F
LONG PRAIRIE   FAIR      64  45  48 E5        30.17F
LITTLE FALLS   MOSUNNY   64  43  45 N3        30.17S
LITCHFIELD     MOSUNNY   66  46  48 N7        30.18F
BUFFALO        MOSUNNY   68  44  42 CALM      30.17S
MAPLE LAKE     PTSUNNY   68  51  53 NW7       30.18S
$$
MNZ037-044-045-052-053-072000-
   East Central Minnesota

CITY           SKY/WX    TMP DP  RH WIND       PRES   REMARKS
PRINCETON      MOSUNNY   70  46  43 NE6       30.16S
MORA           MOSUNNY   64  43  45 CALM      30.17F
CAMBRIDGE      MOSUNNY   70  50  49 N7        30.14S
RUSH CITY      MOSUNNY   67  46  48 CALM      30.15F
MOOSE LAKE     MOSUNNY   66  43  42 CALM      30.13F
HINCKLEY       FAIR      68  48  49 CALM      30.15F
CLOQUET        MOSUNNY   68  39  34 NW7       30.14S
MCGREGOR       MOSUNNY   68  43  40 CALM      30.15F
$$
MNZ071>073-080-081-089-090-097-098-072000-
   Southwest Minnesota

CITY           SKY/WX    TMP DP  RH WIND       PRES   REMARKS
MONTEVIDEO     PTSUNNY   70  48  46 E3        30.20F
GRANITE FALLS  MOSUNNY   67  48  50 CALM      30.20F
CANBY          SUNNY     65  47  51 E9        30.19F
MARSHALL       PTSUNNY   64  45  48 E9        30.18
REDWOOD FALLS  MOSUNNY   68  47  46 NE9       30.18F
OLIVIA         MOSUNNY   64  45  48 NE6       30.17F
PIPESTONE      PTSUNNY   64  46  52 NE5       30.19F
WINDOM         SUNNY     64  46  52 CALM      30.18F
WORTHINGTON    MOSUNNY   64  46  52 N9G20     30.19S
JACKSON        MOSUNNY   66  50  55 N5        30.19S
TRACY          MOSUNNY   66  47  49 E7        30.19F
SLAYTON        PTSUNNY   64  46  52 CALM      30.20F
$$
MNZ065>067-074>077-082>085-091>093-072000-
   South Central Minnesota

CITY           SKY/WX    TMP DP  RH WIND       PRES   REMARKS
MANKATO        MOSUNNY   64  45  48 NE9       30.16F
NEW ULM        MOSUNNY   64  45  48 E8        30.17F
ST JAMES         N/A     66  50  55 N3        30.18F
FAIRMONT       MOSUNNY   63  45  51 N9        30.17S
GLENCOE        PTSUNNY   67  49  53 N5        30.16F
FARIBAULT      MOSUNNY   66  48  52 NE6       30.16S
OWATONNA       MOSUNNY   66  46  48 N7G17     30.16S
WASECA         MOSUNNY   64  46  52 NE8       30.17F
ALBERT LEA     MOSUNNY   64  48  55 NE12      30.15S
$$
MNZ078>079-086>088-094>096-072000-
   Southeast Minnesota

CITY           SKY/WX    TMP DP  RH WIND       PRES   REMARKS
ROCHESTER      MOSUNNY   65  48  54 NE14      30.16S
RED WING       PTSUNNY   68  46  45 N7        30.13S
DODGE CENTER   PTSUNNY   63  46  55 N9        30.15S
WINONA         MOSUNNY   68  46  45 NE5       30.13S
AUSTIN         PTSUNNY   64  48  55 N3        30.15S
PRESTON        PTSUNNY   62  46  57 NE10G17   30.14S
$$
ABBREVIATIONS USED IN REMARKS
   TC - TEMPERATURES IN CELSIUS
  WCI - WIND CHILL INDEX
   HX - HEAT INDEX
  VSB - VISIBILITY
$$



USA.gov is the U.S. government's official web portal to all federal, state and local government web resources and services.